AJ5TT Weather Reports


Display with metric or nautical units.
time (UTC)temp
F
wind
direction
speed
MPH
gust
MPH
rain 1hr
in
rain 24hr
in
rain mn
in
humidity
%
barometer
mb
20260504180052 80 221 6.0 9.0 0.00 0.00 0.00 61 1015.5
20260504174601 79 71 5.0 10.0 0.00 0.00 0.00 58 1015.6
20260504173056 79 151 7.0 14.0 0.00 0.00 0.00 60 1015.9
20260504171551 78 211 4.0 11.0 0.00 0.00 0.00 58 1016.0
20260504140107 71 223 1.0 3.0 0.00 0.00 0.00 71 1016.6
20260504110116 56 0 0.0 0.0 0.00 0.00 0.00 87 1016.4
20260504100103 57 0 0.0 0.0 0.00 0.00 0.00 86 1016.6
20260504090117 57 0 0.0 0.0 0.00 0.00 0.00 85 1017.0
20260504081608 58 0 0.0 0.0 0.00 0.00 0.00 82 1017.5
20260504080106 59 0 0.0 0.0 0.00 0.00 0.00 82 1017.6
20260504044601 62 163 0.0 2.0 0.00 0.00 0.00 73 1019.4
20260504043055 61 0 0.0 2.0 0.00 0.00 0.00 75 1019.5
20260504041554 63 0 0.0 2.0 0.00 0.00 0.00 70 1019.4
20260504040106 64 159 0.0 2.0 0.00 0.00 0.00 69 1019.3
20260504034603 64 0 0.0 2.0 0.00 0.00 0.00 67 1019.6
20260504033108 64 161 0.0 2.0 0.00 0.00 0.00 67 1019.5
20260504031553 65 154 0.0 2.0 0.00 0.00 0.00 66 1019.4
20260504030055 65 177 0.0 2.0 0.00 0.00 0.00 65 1019.3
20260504024604 65 174 0.0 2.0 0.00 0.00 0.00 65 1019.4
20260504023055 66 191 1.0 2.0 0.00 0.00 0.00 63 1019.3
20260504021555 66 202 0.0 2.0 0.00 0.00 0.00 63 1019.2
20260504020053 67 163 0.0 2.0 0.00 0.00 0.00 62 1019.3
20260504014554 68 194 1.0 4.0 0.00 0.00 0.00 60 1019.3
20260504013054 68 189 1.0 2.0 0.00 0.00 0.00 59 1019.4
20260504011554 69 184 2.0 4.0 0.00 0.00 0.00 57 1019.2
20260504010057 70 209 0.0 3.0 0.00 0.00 0.00 55 1019.2
20260504004552 71 185 1.0 4.0 0.00 0.00 0.00 53 1019.1
20260504003054 72 138 1.0 5.0 0.00 0.00 0.00 51 1019.0
20260504001611 73 213 2.0 5.0 0.00 0.00 0.00 48 1019.1
20260504000056 74 167 2.0 6.0 0.00 0.00 0.00 46 1019.2
20260503234553 75 120 2.0 9.0 0.00 0.00 0.00 44 1019.3
20260503233057 76 168 3.0 12.0 0.00 0.00 0.00 45 1019.5
20260503231555 76 205 3.0 9.0 0.00 0.00 0.00 42 1019.4
20260503230053 77 207 2.0 5.0 0.00 0.00 0.00 41 1019.6
20260503224553 78 217 2.0 7.0 0.00 0.00 0.00 43 1019.6
20260503223051 78 180 2.0 5.0 0.00 0.00 0.00 40 1019.9
20260503221552 78 238 2.0 7.0 0.00 0.00 0.00 41 1019.8
20260503220109 77 203 1.0 6.0 0.00 0.00 0.00 42 1019.9
20260503214554 78 211 3.0 8.0 0.00 0.00 0.00 41 1020.1
20260503213055 79 126 2.0 5.0 0.00 0.00 0.00 40 1020.1
20260503211605 79 294 3.0 8.0 0.00 0.00 0.00 39 1020.3
20260503210057 77 221 1.0 5.0 0.00 0.00 0.00 40 1020.4
20260503204557 78 340 1.0 6.0 0.00 0.00 0.00 40 1020.5
20260503203053 79 45 2.0 6.0 0.00 0.00 0.00 40 1020.9
20260503201555 80 188 3.0 11.0 0.00 0.00 0.00 34 1021.3
20260503200055 80 290 2.0 9.0 0.00 0.00 0.00 40 1021.5
20260503194558 79 63 1.0 5.0 0.00 0.00 0.00 36 1021.6
20260503193120 79 68 3.0 9.0 0.00 0.00 0.00 37 1021.8
20260503191600 78 352 2.0 5.0 0.00 0.00 0.00 40 1022.1
20260503190055 80 28 3.0 9.0 0.00 0.00 0.00 36 1022.4
20260503184557 78 337 2.0 7.0 0.00 0.00 0.00 37 1022.5
20260503183101 78 179 1.0 4.0 0.00 0.00 0.00 37 1022.7
20260503181620 79 30 1.0 8.0 0.00 0.00 0.00 36 1023.0